,,Stat6,,Stat2,,Stat8,,Stat9,,Stat10,,Wind1,,Wind1,
time,status,PA1M_AVG,status,PR1M_SUM,status,RH1M_AVG,status,SR1M_AVG,status,TA1M_AVG,status,W1dAve1m,status,W1sAve1m,
2008-04-21, 00:00:00,VALID,914.285,VALID,0,VALID,100,VALID,-0.0679233,VALID,19.4442,VALID,116,VALID,0.215376,
2008-04-21, 00:01:00,VALID,914.273,VALID,0,VALID,100,VALID,-0.0339617,VALID,19.454,VALID,116,VALID,0.0322516,
2008-04-21, 00:02:00,VALID,914.275,VALID,0,VALID,100,VALID,-0.0679233,VALID,19.4799,VALID,116,VALID,0,
2008-04-21, 00:03:00,VALID,914.278,VALID,0,VALID,100,VALID,0,VALID,19.4924,VALID,116,VALID,0,
2008-04-21, 00:04:00,VALID,914.276,VALID,0,VALID,100,VALID,-0.0169808,VALID,19.4994,VALID,116,VALID,0,
2008-04-21, 00:05:00,VALID,914.271,VALID,0,VALID,100,VALID,0,VALID,19.4537,VALID,116,VALID,0,
2008-04-21, 00:06:00,VALID,914.276,VALID,0,VALID,100,VALID,0,VALID,19.4432,VALID,116,VALID,0,
2008-04-21, 00:07:00,VALID,914.273,VALID,0,VALID,100,VALID,-0.0509425,VALID,19.4595,VALID,116,VALID,0,
2008-04-21, 00:08:00,VALID,914.278,VALID,0,VALID,100,VALID,-0.0169808,VALID,19.4664,VALID,116,VALID,0,
2008-04-21, 00:09:00,VALID,914.262,VALID,0,VALID,100,VALID,0,VALID,19.4764,VALID,116,VALID,0,
2008-04-21, 00:10:00,VALID,914.264,VALID,0,VALID,100,VALID,0,VALID,19.4535,VALID,120,VALID,0,
2008-04-21, 00:11:00,VALID,914.259,VALID,0,VALID,100,VALID,-0.0169808,VALID,19.4602,VALID,124,VALID,0,
2008-04-21, 00:12:00,VALID,914.273,VALID,0,VALID,100,VALID,0,VALID,19.4792,VALID,131,VALID,0,
2008-04-21, 00:13:00,VALID,914.274,VALID,0,VALID,100,VALID,-0.0339617,VALID,19.5021,VALID,138,VALID,0,
2008-04-21, 00:14:00,VALID,914.304,VALID,0,VALID,100,VALID,0,VALID,19.4986,VALID,138,VALID,0,
2008-04-21, 00:15:00,VALID,914.309,VALID,0,VALID,100,VALID,-0.0169808,VALID,19.5121,VALID,138,VALID,0,
2008-04-21, 00:16:00,VALID,914.319,VALID,0,VALID,100,VALID,0,VALID,19.5313,VALID,141,VALID,0.12035,
2008-04-21, 00:17:00,VALID,914.338,VALID,0,VALID,100,VALID,0.0169808,VALID,19.5508,VALID,148,VALID,0.00241815,
2008-04-21, 00:18:00,VALID,914.327,VALID,0,VALID,100,VALID,0,VALID,19.5798,VALID,149,VALID,0,
2008-04-21, 00:19:00,VALID,914.334,VALID,0,VALID,100,VALID,-0.0169808,VALID,19.606,VALID,146,VALID,0,
2008-04-21, 00:20:00,VALID,914.32,VALID,0,VALID,100,VALID,-0.0169808,VALID,19.6252,VALID,131,VALID,0,
2008-04-21, 00:21:00,VALID,914.307,VALID,0,VALID,100,VALID,-0.0169808,VALID,19.6154,VALID,140,VALID,0,
2008-04-21, 00:22:00,VALID,914.305,VALID,0,VALID,100,VALID,-0.0169808,VALID,19.6157,VALID,151,VALID,0.0686773,
2008-04-21, 00:23:00,VALID,914.295,VALID,0,VALID,100,VALID,-0.0169808,VALID,19.6389,VALID,150,VALID,0.760719,
2008-04-21, 00:24:00,VALID,914.293,VALID,0,VALID,100,VALID,-0.0509425,VALID,19.6421,VALID,162,VALID,0.865189,
2008-04-21, 00:25:00,VALID,914.282,VALID,0,VALID,100,VALID,-0.0169808,VALID,19.6389,VALID,167,VALID,0.814317,
2008-04-21, 00:26:00,VALID,914.285,VALID,0,VALID,100,VALID,-0.0679233,VALID,19.6292,VALID,168,VALID,0.630469,
2008-04-21, 00:27:00,VALID,914.299,VALID,0,VALID,100,VALID,0,VALID,19.6324,VALID,168,VALID,0.84375,
2008-04-21, 00:28:00,VALID,914.305,VALID,0,VALID,100,VALID,-0.0169808,VALID,19.6222,VALID,167,VALID,0.724144,
2008-04-21, 00:29:00,VALID,914.3,VALID,0,VALID,100,VALID,-0.0339617,VALID,19.6324,VALID,162,VALID,0.716747,
2008-04-21, 00:30:00,VALID,914.311,VALID,0,VALID,100,VALID,0,VALID,19.6289,VALID,167,VALID,0.366824,
2008-04-21, 00:31:00,VALID,914.307,VALID,0,VALID,100,VALID,-0.0339617,VALID,19.6132,VALID,161,VALID,0.598323,
2008-04-21, 00:32:00,VALID,914.308,VALID,0,VALID,100,VALID,-0.0339617,VALID,19.6002,VALID,142,VALID,0,
2008-04-21, 00:33:00,VALID,914.307,VALID,0,VALID,100,VALID,0,VALID,19.593,VALID,154,VALID,0.376524,
2008-04-21, 00:34:00,VALID,914.318,VALID,0,VALID,100,VALID,-0.0169808,VALID,19.5902,VALID,144,VALID,0.539249,
2008-04-21, 00:35:00,VALID,914.321,VALID,0,VALID,100,VALID,0,VALID,19.5798,VALID,147,VALID,0.777616,
2008-04-21, 00:36:00,VALID,914.34,VALID,0,VALID,100,VALID,-0.0169808,VALID,19.5765,VALID,152,VALID,0.634411,
2008-04-21, 00:37:00,VALID,914.346,VALID,0,VALID,100,VALID,0,VALID,19.5827,VALID,154,VALID,0.274009,
2008-04-21, 00:38:00,VALID,914.343,VALID,0,VALID,100,VALID,0,VALID,19.593,VALID,121,VALID,0.644245,
2008-04-21, 00:39:00,VALID,914.325,VALID,0,VALID,100,VALID,0,VALID,19.5772,VALID,129,VALID,1.16368,
2008-04-21, 00:40:00,VALID,914.321,VALID,0,VALID,100,VALID,-0.0339617,VALID,19.5473,VALID,134,VALID,1.15705,
2008-04-21, 00:41:00,VALID,914.314,VALID,0,VALID,100,VALID,-0.0169808,VALID,19.5216,VALID,135,VALID,0.972834,
2008-04-21, 00:42:00,VALID,914.301,VALID,0,VALID,100,VALID,-0.0339617,VALID,19.5056,VALID,135,VALID,0.614025,
2008-04-21, 00:43:00,VALID,914.293,VALID,0,VALID,100,VALID,-0.0169808,VALID,19.4996,VALID,136,VALID,0,
2008-04-21, 00:44:00,VALID,914.268,VALID,0,VALID,100,VALID,0,VALID,19.4592,VALID,121,VALID,0.00109012,
2008-04-21, 00:45:00,VALID,914.261,VALID,0,VALID,100,VALID,0,VALID,19.447,VALID,119,VALID,0.805382,
2008-04-21, 00:46:00,VALID,914.268,VALID,0,VALID,100,VALID,-0.0169808,VALID,19.441,VALID,140,VALID,1.28008,
2008-04-21, 00:47:00,VALID,914.275,VALID,0,VALID,100,VALID,0,VALID,19.4412,VALID,145,VALID,1.242,
2008-04-21, 00:48:00,VALID,914.26,VALID,0,VALID,100,VALID,-0.0169808,VALID,19.4442,VALID,143,VALID,1.33721,
2008-04-21, 00:49:00,VALID,914.244,VALID,0,VALID,100,VALID,-0.0849042,VALID,19.4472,VALID,131,VALID,1.17294,
2008-04-21, 00:50:00,VALID,914.242,VALID,0,VALID,100,VALID,-0.0169808,VALID,19.457,VALID,132,VALID,1.14648,
2008-04-21, 00:51:00,VALID,914.231,VALID,0,VALID,100,VALID,0,VALID,19.4565,VALID,137,VALID,0.765625,
2008-04-21, 00:52:00,VALID,914.228,VALID,0,VALID,100,VALID,0,VALID,19.4702,VALID,132,VALID,1.24063,
2008-04-21, 00:53:00,VALID,914.224,VALID,0,VALID,100,VALID,-0.0679233,VALID,19.4669,VALID,116,VALID,0.919207,
2008-04-21, 00:54:00,VALID,914.213,VALID,0,VALID,100,VALID,-0.0509425,VALID,19.4669,VALID,97,VALID,1.18583,
2008-04-21, 00:55:00,VALID,914.204,VALID,0,VALID,100,VALID,-0.0509425,VALID,19.4567,VALID,81,VALID,1.17764,
2008-04-21, 00:56:00,VALID,914.218,VALID,0,VALID,100,VALID,-0.0169808,VALID,19.4827,VALID,135,VALID,0.582122,
2008-04-21, 00:57:00,VALID,914.202,VALID,0,VALID,100,VALID,0.0169808,VALID,19.4859,VALID,127,VALID,1.54261,
2008-04-21, 00:58:00,VALID,914.192,VALID,0,VALID,100,VALID,0,VALID,19.4959,VALID,114,VALID,1.35369,
2008-04-21, 00:59:00,VALID,914.177,VALID,0,VALID,100,VALID,-0.0169808,VALID,19.5054,VALID,118,VALID,0.932049,
2008-04-21, 01:00:00,VALID,914.148,VALID,0,VALID,100,VALID,-0.0339617,VALID,19.5253,VALID,90,VALID,0.763086,
2008-04-21, 01:01:00,VALID,914.128,VALID,0,VALID,100,VALID,-0.0339617,VALID,19.5251,VALID,117,VALID,1.25335,
2008-04-21, 01:02:00,VALID,914.113,VALID,0,VALID,100,VALID,-0.0339617,VALID,19.5353,VALID,121,VALID,1.23795,
2008-04-21, 01:03:00,VALID,914.095,VALID,0,VALID,100,VALID,0,VALID,19.5508,VALID,129,VALID,1.44851,
2008-04-21, 01:04:00,VALID,914.097,VALID,0,VALID,100,VALID,-0.0169808,VALID,19.574,VALID,139,VALID,1.19132,
2008-04-21, 01:05:00,VALID,914.083,VALID,0,VALID,100,VALID,-0.0169808,VALID,19.5807,VALID,135,VALID,1.15699,
2008-04-21, 01:06:00,VALID,914.054,VALID,0,VALID,100,VALID,-0.0339617,VALID,19.5872,VALID,131,VALID,0.968568,
2008-04-21, 01:07:00,VALID,914.044,VALID,0,VALID,100,VALID,-0.0339617,VALID,19.5902,VALID,112,VALID,0.751674,
2008-04-21, 01:08:00,VALID,914.014,VALID,0,VALID,100,VALID,0,VALID,19.587,VALID,126,VALID,0.829799,
2008-04-21, 01:09:00,VALID,914.024,VALID,0,VALID,100,VALID,-0.0169808,VALID,19.6,VALID,149,VALID,0.931021,
2008-04-21, 01:10:00,VALID,914.018,VALID,0,VALID,100,VALID,-0.0169808,VALID,19.6129,VALID,158,VALID,1.38681,
2008-04-21, 01:11:00,VALID,913.995,VALID,0,VALID,100,VALID,-0.0339617,VALID,19.5895,VALID,139,VALID,0.992188,
2008-04-21, 01:12:00,VALID,913.99,VALID,0,VALID,100,VALID,-0.0169808,VALID,19.6025,VALID,140,VALID,1.0467,
2008-04-21, 01:13:00,VALID,913.973,VALID,0,VALID,100,VALID,0,VALID,19.5865,VALID,135,VALID,1.49371,
2008-04-21, 01:14:00,VALID,913.954,VALID,0,VALID,100,VALID,0,VALID,19.5408,VALID,146,VALID,1.12921,
2008-04-21, 01:15:00,VALID,913.914,VALID,0,VALID,100,VALID,0,VALID,19.5773,VALID,145,VALID,0.530134,
2008-04-21, 01:16:00,VALID,913.912,VALID,0,VALID,100,VALID,-0.0169808,VALID,19.5895,VALID,129,VALID,0.410633,
2008-04-21, 01:17:00,VALID,913.88,VALID,0,VALID,100,VALID,-0.0169808,VALID,19.593,VALID,145,VALID,0.289621,
2008-04-21, 01:18:00,VALID,913.852,VALID,0,VALID,100,VALID,-0.0169808,VALID,19.5635,VALID,107,VALID,0.000976563,
2008-04-21, 01:19:00,VALID,913.805,VALID,0,VALID,100,VALID,0,VALID,19.5473,VALID,93,VALID,0.809896,
2008-04-21, 01:20:00,VALID,913.799,VALID,0,VALID,100,VALID,-0.0169808,VALID,19.56,VALID,94,VALID,0.690848,
2008-04-21, 01:21:00,VALID,913.77,VALID,0,VALID,100,VALID,0,VALID,19.5927,VALID,150,VALID,0.675781,
2008-04-21, 01:22:00,VALID,913.766,VALID,0,VALID,100,VALID,0.0169808,VALID,19.6025,VALID,164,VALID,1.26711,
2008-04-21, 01:23:00,VALID,913.748,VALID,0,VALID,100,VALID,-0.0169808,VALID,19.6129,VALID,181,VALID,0.583629,
2008-04-21, 01:24:00,VALID,913.719,VALID,0,VALID,100,VALID,-0.0169808,VALID,19.5932,VALID,176,VALID,1.23946,
2008-04-21, 01:25:00,VALID,913.707,VALID,0,VALID,100,VALID,-0.0169808,VALID,19.5765,VALID,150,VALID,0.889063,
2008-04-21, 01:26:00,VALID,913.681,VALID,0,VALID,100,VALID,-0.0169808,VALID,19.5932,VALID,126,VALID,0.607329,
2008-04-21, 01:27:00,VALID,913.673,VALID,0,VALID,100,VALID,-0.0169808,VALID,19.599,VALID,97,VALID,1.11471,
2008-04-21, 01:28:00,VALID,913.651,VALID,0,VALID,100,VALID,-0.0169808,VALID,19.6546,VALID,102,VALID,1.00618,
2008-04-21, 01:29:00,VALID,913.628,VALID,0,VALID,100,VALID,0,VALID,19.6746,VALID,92,VALID,1.2926,
2008-04-21, 01:30:00,VALID,913.605,VALID,0,VALID,100,VALID,0,VALID,19.6906,VALID,98,VALID,1.15698,
2008-04-21, 01:31:00,VALID,913.589,VALID,0,VALID,100,VALID,-0.0509425,VALID,19.7457,VALID,100,VALID,0.839558,
2008-04-21, 01:32:00,VALID,913.572,VALID,0,VALID,100,VALID,0,VALID,19.7517,VALID,90,VALID,0.015439,
2008-04-21, 01:33:00,VALID,913.549,VALID,0,VALID,100,VALID,-0.0339617,VALID,19.7417,VALID,91,VALID,0,
2008-04-21, 01:34:00,VALID,913.54,VALID,0,VALID,100,VALID,0,VALID,19.7649,VALID,102,VALID,0,
2008-04-21, 01:35:00,VALID,913.536,VALID,0,VALID,100,VALID,-0.0169808,VALID,19.7582,VALID,111,VALID,0,
2008-04-21, 01:36:00,VALID,913.529,VALID,0,VALID,100,VALID,0.0169808,VALID,19.7482,VALID,117,VALID,0,
2008-04-21, 01:37:00,VALID,913.535,VALID,0,VALID,100,VALID,-0.0169808,VALID,19.7457,VALID,126,VALID,0,
2008-04-21, 01:38:00,VALID,913.528,VALID,0,VALID,100,VALID,-0.0339617,VALID,19.7258,VALID,132,VALID,0,
2008-04-21, 01:39:00,VALID,913.53,VALID,0,VALID,100,VALID,0,VALID,19.7095,VALID,132,VALID,0,
2008-04-21, 01:40:00,VALID,913.553,VALID,0,VALID,100,VALID,-0.0339617,VALID,19.6998,VALID,132,VALID,0,
2008-04-21, 01:41:00,VALID,913.577,VALID,0,VALID,100,VALID,-0.0169808,VALID,19.7001,VALID,132,VALID,0,
2008-04-21, 01:42:00,VALID,913.615,VALID,0,VALID,100,VALID,0,VALID,19.6866,VALID,132,VALID,0,
2008-04-21, 01:43:00,VALID,913.633,VALID,0,VALID,100,VALID,-0.0169808,VALID,19.6836,VALID,132,VALID,0,
2008-04-21, 01:44:00,VALID,913.649,VALID,0,VALID,100,VALID,-0.0509425,VALID,19.6708,VALID,132,VALID,0,
2008-04-21, 01:45:00,VALID,913.657,VALID,0,VALID,100,VALID,0,VALID,19.6611,VALID,132,VALID,0,
2008-04-21, 01:46:00,VALID,913.684,VALID,0,VALID,100,VALID,-0.0169808,VALID,19.6449,VALID,132,VALID,0,
2008-04-21, 01:47:00,VALID,913.696,VALID,0,VALID,100,VALID,0,VALID,19.6516,VALID,132,VALID,0,
2008-04-21, 01:48:00,VALID,913.719,VALID,0,VALID,100,VALID,-0.0169808,VALID,19.6481,VALID,132,VALID,0,
2008-04-21, 01:49:00,VALID,913.734,VALID,0,VALID,100,VALID,-0.0169808,VALID,19.6481,VALID,132,VALID,0,
2008-04-21, 01:50:00,VALID,913.754,VALID,0,VALID,100,VALID,0,VALID,19.6384,VALID,132,VALID,0,
2008-04-21, 01:51:00,VALID,913.766,VALID,0,VALID,100,VALID,0,VALID,19.6419,VALID,132,VALID,0,
2008-04-21, 01:52:00,VALID,913.787,VALID,0,VALID,100,VALID,0,VALID,19.6516,VALID,232,VALID,0,
2008-04-21, 01:53:00,VALID,913.796,VALID,0,VALID,100,VALID,0,VALID,19.6319,VALID,238,VALID,0,
2008-04-21, 01:54:00,VALID,913.809,VALID,0,VALID,100,VALID,-0.0169808,VALID,19.6252,VALID,240,VALID,0.141768,
2008-04-21, 01:55:00,VALID,913.836,VALID,0,VALID,100,VALID,0,VALID,19.6551,VALID,244,VALID,0.124479,
2008-04-21, 01:56:00,VALID,913.844,VALID,0,VALID,100,VALID,-0.0339617,VALID,19.6614,VALID,244,VALID,0,
2008-04-21, 01:57:00,VALID,913.842,VALID,0,VALID,100,VALID,0.0169808,VALID,19.6738,VALID,244,VALID,0,
2008-04-21, 01:58:00,VALID,913.832,VALID,0,VALID,100,VALID,-0.0169808,VALID,19.6676,VALID,244,VALID,0,
2008-04-21, 01:59:00,VALID,913.821,VALID,0,VALID,100,VALID,-0.0169808,VALID,19.7003,VALID,244,VALID,0,
2008-04-21, 02:00:00,VALID,913.821,VALID,0,VALID,100,VALID,0,VALID,19.7397,VALID,244,VALID,0,
2008-04-21, 02:01:00,VALID,913.816,VALID,0,VALID,100,VALID,-0.0339617,VALID,19.7397,VALID,244,VALID,0,
2008-04-21, 02:02:00,VALID,913.829,VALID,0,VALID,100,VALID,-0.0169808,VALID,19.7195,VALID,123,VALID,0.250401,
2008-04-21, 02:03:00,VALID,913.817,VALID,0,VALID,100,VALID,-0.0169808,VALID,19.6651,VALID,83,VALID,0.734896,
2008-04-21, 02:04:00,VALID,913.806,VALID,0,VALID,100,VALID,-0.0169808,VALID,19.6065,VALID,84,VALID,0.947621,
2008-04-21, 02:05:00,VALID,913.771,VALID,0,VALID,100,VALID,-0.0169808,VALID,19.5772,VALID,80,VALID,1.2873,
2008-04-21, 02:06:00,VALID,913.759,VALID,0,VALID,100,VALID,0,VALID,19.5675,VALID,75,VALID,1.05323,
2008-04-21, 02:07:00,VALID,913.735,VALID,0,VALID,100,VALID,-0.0169808,VALID,19.558,VALID,78,VALID,1.09028,
2008-04-21, 02:08:00,VALID,913.725,VALID,0,VALID,100,VALID,0,VALID,19.5413,VALID,84,VALID,1.14043,
2008-04-21, 02:09:00,VALID,913.705,VALID,0,VALID,100,VALID,-0.0169808,VALID,19.5256,VALID,86,VALID,0.740278,
2008-04-21, 02:10:00,VALID,913.695,VALID,0,VALID,100,VALID,-0.0339617,VALID,19.5119,VALID,74,VALID,0.015811,
2008-04-21, 02:11:00,VALID,913.694,VALID,0,VALID,100,VALID,-0.0509425,VALID,19.5056,VALID,72,VALID,0,
2008-04-21, 02:12:00,VALID,913.688,VALID,0,VALID,100,VALID,0,VALID,19.5191,VALID,61,VALID,0,
2008-04-21, 02:13:00,VALID,913.674,VALID,0,VALID,100,VALID,-0.0169808,VALID,19.4956,VALID,42,VALID,0,
2008-04-21, 02:14:00,VALID,913.672,VALID,0,VALID,100,VALID,-0.0169808,VALID,19.4961,VALID,41,VALID,0,
2008-04-21, 02:15:00,VALID,913.693,VALID,0,VALID,100,VALID,-0.0339617,VALID,19.5124,VALID,24,VALID,0,
2008-04-21, 02:16:00,VALID,913.705,VALID,0,VALID,100,VALID,0,VALID,19.5086,VALID,16,VALID,0,
2008-04-21, 02:17:00,VALID,913.736,VALID,0,VALID,100,VALID,0,VALID,19.5413,VALID,16,VALID,0,
2008-04-21, 02:18:00,VALID,913.752,VALID,0,VALID,100,VALID,-0.0169808,VALID,19.5738,VALID,16,VALID,0,
2008-04-21, 02:19:00,VALID,913.768,VALID,0,VALID,100,VALID,0.0169808,VALID,19.5837,VALID,16,VALID,0,
2008-04-21, 02:20:00,VALID,913.783,VALID,0,VALID,100,VALID,0,VALID,19.5733,VALID,17,VALID,0,
2008-04-21, 02:21:00,VALID,913.816,VALID,0,VALID,100,VALID,0,VALID,19.5673,VALID,88,VALID,0,
2008-04-21, 02:22:00,VALID,913.827,VALID,0,VALID,100,VALID,0,VALID,19.5538,VALID,155,VALID,0,
2008-04-21, 02:23:00,VALID,913.877,VALID,0,VALID,100,VALID,0,VALID,19.5448,VALID,198,VALID,0.188227,
2008-04-21, 02:24:00,VALID,913.936,VALID,0,VALID,100,VALID,-0.0169808,VALID,19.5343,VALID,238,VALID,0.603924,
2008-04-21, 02:25:00,VALID,913.976,VALID,0,VALID,100,VALID,0,VALID,19.5278,VALID,249,VALID,1.82441,
2008-04-21, 02:26:00,VALID,914.025,VALID,0.4,VALID,100,VALID,0,VALID,19.5116,VALID,253,VALID,2.29258,
2008-04-21, 02:27:00,VALID,914.002,VALID,0.2,VALID,100,VALID,0,VALID,19.5218,VALID,252,VALID,2.31211,
2008-04-21, 02:28:00,VALID,913.962,VALID,0.2,VALID,100,VALID,-0.0169808,VALID,19.5121,VALID,254,VALID,1.78198,
2008-04-21, 02:29:00,VALID,913.963,VALID,0,VALID,100,VALID,-0.0169808,VALID,19.4989,VALID,248,VALID,1.28066,
2008-04-21, 02:30:00,VALID,913.976,VALID,0.2,VALID,100,VALID,-0.0339617,VALID,19.4929,VALID,240,VALID,1.30238,
2008-04-21, 02:31:00,VALID,913.974,VALID,0,VALID,100,VALID,-0.0169808,VALID,19.4929,VALID,235,VALID,0.888808,
2008-04-21, 02:32:00,VALID,913.98,VALID,0.2,VALID,100,VALID,-0.0169808,VALID,19.5089,VALID,215,VALID,0.570126,
2008-04-21, 02:33:00,VALID,913.974,VALID,0,VALID,100,VALID,-0.0169808,VALID,19.5221,VALID,239,VALID,0.704901,
2008-04-21, 02:34:00,VALID,913.977,VALID,0.2,VALID,100,VALID,-0.0169808,VALID,19.5218,VALID,238,VALID,0.781441,
2008-04-21, 02:35:00,VALID,913.986,VALID,0.2,VALID,100,VALID,-0.0169808,VALID,19.5151,VALID,228,VALID,0.878634,
2008-04-21, 02:36:00,VALID,913.961,VALID,0.2,VALID,100,VALID,0,VALID,19.5253,VALID,241,VALID,0.415551,
2008-04-21, 02:37:00,VALID,913.927,VALID,0.2,VALID,100,VALID,-0.0509425,VALID,19.5253,VALID,223,VALID,0.598505,
2008-04-21, 02:38:00,VALID,913.916,VALID,0,VALID,100,VALID,0.0169808,VALID,19.5114,VALID,220,VALID,0.232279,
2008-04-21, 02:39:00,VALID,913.914,VALID,0.2,VALID,100,VALID,0,VALID,19.5221,VALID,236,VALID,0,
2008-04-21, 02:40:00,VALID,913.891,VALID,0,VALID,100,VALID,0.0169808,VALID,19.5184,VALID,257,VALID,0,
2008-04-21, 02:41:00,VALID,913.849,VALID,0.2,VALID,100,VALID,-0.0169808,VALID,19.5218,VALID,268,VALID,0,
2008-04-21, 02:42:00,VALID,913.814,VALID,0,VALID,100,VALID,0,VALID,19.5283,VALID,270,VALID,0,
2008-04-21, 02:43:00,VALID,913.775,VALID,0,VALID,100,VALID,0,VALID,19.5246,VALID,335,VALID,0,
2008-04-21, 02:44:00,VALID,913.766,VALID,0,VALID,100,VALID,-0.0509425,VALID,19.5411,VALID,27,VALID,0,
2008-04-21, 02:45:00,VALID,913.758,VALID,0.2,VALID,100,VALID,-0.0169808,VALID,19.548,VALID,24,VALID,0,
2008-04-21, 02:46:00,VALID,913.742,VALID,0,VALID,100,VALID,-0.0169808,VALID,19.5548,VALID,27,VALID,0,
2008-04-21, 02:47:00,VALID,913.749,VALID,0.2,VALID,100,VALID,-0.0169808,VALID,19.5645,VALID,23,VALID,0,
2008-04-21, 02:48:00,VALID,913.749,VALID,0,VALID,100,VALID,0,VALID,19.5383,VALID,27,VALID,0,
2008-04-21, 02:49:00,VALID,913.761,VALID,0,VALID,100,VALID,-0.0339617,VALID,19.5288,VALID,29,VALID,0,
2008-04-21, 02:50:00,VALID,913.764,VALID,0.2,VALID,100,VALID,-0.0339617,VALID,19.5381,VALID,26,VALID,0,
2008-04-21, 02:51:00,VALID,913.784,VALID,0,VALID,100,VALID,0,VALID,19.5209,VALID,26,VALID,0,
2008-04-21, 02:52:00,VALID,913.802,VALID,0,VALID,100,VALID,-0.0169808,VALID,19.5248,VALID,28,VALID,0,
2008-04-21, 02:53:00,VALID,913.813,VALID,0.2,VALID,100,VALID,-0.0169808,VALID,19.5079,VALID,27,VALID,0,
2008-04-21, 02:54:00,VALID,913.828,VALID,0,VALID,100,VALID,0,VALID,19.5079,VALID,27,VALID,0,
2008-04-21, 02:55:00,VALID,913.822,VALID,0,VALID,100,VALID,0,VALID,19.5144,VALID,20,VALID,0,
2008-04-21, 02:56:00,VALID,913.827,VALID,0.2,VALID,100,VALID,0.0339617,VALID,19.5243,VALID,3,VALID,0,
2008-04-21, 02:57:00,VALID,913.815,VALID,0.4,VALID,100,VALID,0,VALID,19.5276,VALID,3,VALID,0,
2008-04-21, 02:58:00,VALID,913.79,VALID,0.2,VALID,100,VALID,0,VALID,19.5278,VALID,28,VALID,0,
2008-04-21, 02:59:00,VALID,913.751,VALID,0.2,VALID,100,VALID,-0.0509425,VALID,19.4884,VALID,60,VALID,0,
2008-04-21, 03:00:00,VALID,913.745,VALID,0.2,VALID,100,VALID,0.0169808,VALID,19.4685,VALID,73,VALID,0,
2008-04-21, 03:01:00,VALID,913.769,VALID,0.2,VALID,100,VALID,-0.0509425,VALID,19.4497,VALID,106,VALID,0,
2008-04-21, 03:02:00,VALID,913.782,VALID,0.2,VALID,100,VALID,-0.0339617,VALID,19.4502,VALID,132,VALID,0,
2008-04-21, 03:03:00,VALID,913.763,VALID,0.2,VALID,100,VALID,0,VALID,19.4235,VALID,132,VALID,0,
2008-04-21, 03:04:00,VALID,913.76,VALID,0,VALID,100,VALID,0,VALID,19.43,VALID,124,VALID,0,
2008-04-21, 03:05:00,VALID,913.739,VALID,0,VALID,100,VALID,0,VALID,19.4203,VALID,124,VALID,0.00520833,
2008-04-21, 03:06:00,VALID,913.773,VALID,0.2,VALID,100,VALID,0,VALID,19.414,VALID,74,VALID,0,
2008-04-21, 03:07:00,VALID,913.77,VALID,0,VALID,100,VALID,0,VALID,19.4173,VALID,72,VALID,0,
2008-04-21, 03:08:00,VALID,913.781,VALID,0.2,VALID,100,VALID,-0.0169808,VALID,19.427,VALID,72,VALID,0,
2008-04-21, 03:09:00,VALID,913.79,VALID,0,VALID,100,VALID,0.0169808,VALID,19.43,VALID,92,VALID,0,
2008-04-21, 03:10:00,VALID,913.823,VALID,0,VALID,100,VALID,0.0169808,VALID,19.4263,VALID,104,VALID,0,
2008-04-21, 03:11:00,VALID,913.848,VALID,0.2,VALID,100,VALID,0.0169808,VALID,19.433,VALID,106,VALID,0,
2008-04-21, 03:12:00,VALID,913.856,VALID,0.4,VALID,100,VALID,0,VALID,19.4365,VALID,106,VALID,0,
2008-04-21, 03:13:00,VALID,913.836,VALID,0.2,VALID,100,VALID,0.0339617,VALID,19.4397,VALID,106,VALID,0,
2008-04-21, 03:14:00,VALID,913.821,VALID,0.4,VALID,100,VALID,0.0339617,VALID,19.4427,VALID,106,VALID,0,
2008-04-21, 03:15:00,VALID,913.803,VALID,0.2,VALID,100,VALID,0,VALID,19.4333,VALID,106,VALID,0,
2008-04-21, 03:16:00,VALID,913.849,VALID,0.2,VALID,100,VALID,-0.0169808,VALID,19.4495,VALID,41,VALID,0,
2008-04-21, 03:17:00,VALID,913.867,VALID,0.4,VALID,100,VALID,-0.0169808,VALID,19.427,VALID,319,VALID,0,
2008-04-21, 03:18:00,VALID,913.873,VALID,0.4,VALID,100,VALID,-0.0339617,VALID,19.43,VALID,243,VALID,0,
2008-04-21, 03:19:00,VALID,913.874,VALID,0.4,VALID,100,VALID,0,VALID,19.4465,VALID,251,VALID,0,
2008-04-21, 03:20:00,VALID,913.86,VALID,0.2,VALID,100,VALID,0,VALID,19.4495,VALID,315,VALID,0.168324,
2008-04-21, 03:21:00,VALID,913.893,VALID,0.4,VALID,100,VALID,0,VALID,19.4235,VALID,291,VALID,0.149858,
2008-04-21, 03:22:00,VALID,913.885,VALID,0.2,VALID,100,VALID,0,VALID,19.4046,VALID,264,VALID,0.551417,
2008-04-21, 03:23:00,VALID,913.913,VALID,0.2,VALID,100,VALID,0,VALID,19.3913,VALID,298,VALID,0.00590701,
2008-04-21, 03:24:00,VALID,913.915,VALID,0.2,VALID,100,VALID,0,VALID,19.3848,VALID,298,VALID,0,
2008-04-21, 03:25:00,VALID,913.925,VALID,0,VALID,100,VALID,-0.0169808,VALID,19.3846,VALID,330,VALID,0,
2008-04-21, 03:26:00,VALID,913.921,VALID,0.2,VALID,100,VALID,0,VALID,19.3781,VALID,244,VALID,0.207485,
2008-04-21, 03:27:00,VALID,913.941,VALID,0.2,VALID,100,VALID,0,VALID,19.3492,VALID,257,VALID,0.109003,
2008-04-21, 03:28:00,VALID,913.956,VALID,0.2,VALID,100,VALID,-0.0169808,VALID,19.3262,VALID,284,VALID,0.0644985,
2008-04-21, 03:29:00,VALID,913.954,VALID,0.2,VALID,100,VALID,0,VALID,19.3165,VALID,284,VALID,0,
2008-04-21, 03:30:00,VALID,913.946,VALID,0.2,VALID,100,VALID,0,VALID,19.3167,VALID,219,VALID,0.021984,
2008-04-21, 03:31:00,VALID,913.951,VALID,0.2,VALID,100,VALID,-0.0339617,VALID,19.32,VALID,186,VALID,0,
2008-04-21, 03:32:00,VALID,913.943,VALID,0.2,VALID,100,VALID,-0.0169808,VALID,19.3392,VALID,97,VALID,0,
2008-04-21, 03:33:00,VALID,913.946,VALID,0.2,VALID,100,VALID,-0.0169808,VALID,19.317,VALID,69,VALID,0.0010016,
2008-04-21, 03:34:00,VALID,913.95,VALID,0,VALID,100,VALID,-0.0339617,VALID,19.3105,VALID,82,VALID,0,
2008-04-21, 03:35:00,VALID,913.948,VALID,0.2,VALID,100,VALID,0.0169808,VALID,19.3267,VALID,82,VALID,0,
2008-04-21, 03:36:00,VALID,913.935,VALID,0.4,VALID,100,VALID,0,VALID,19.307,VALID,346,VALID,0,
2008-04-21, 03:37:00,VALID,913.935,VALID,0.2,VALID,100,VALID,-0.0169808,VALID,19.2972,VALID,9,VALID,0.311592,
2008-04-21, 03:38:00,VALID,913.944,VALID,0.2,VALID,100,VALID,-0.0169808,VALID,19.3037,VALID,39,VALID,0.109747,
2008-04-21, 03:39:00,VALID,913.92,VALID,0.2,VALID,100,VALID,0,VALID,19.3167,VALID,38,VALID,0.000571646,
2008-04-21, 03:40:00,VALID,913.92,VALID,0.4,VALID,100,VALID,-0.0169808,VALID,19.3165,VALID,40,VALID,0.141352,
2008-04-21, 03:41:00,VALID,913.921,VALID,0.2,VALID,100,VALID,0,VALID,19.3037,VALID,28,VALID,0.795541,
2008-04-21, 03:42:00,VALID,913.927,VALID,0.2,VALID,100,VALID,0,VALID,19.291,VALID,38,VALID,0.896763,
2008-04-21, 03:43:00,VALID,913.956,VALID,0.2,VALID,100,VALID,0,VALID,19.2775,VALID,36,VALID,0.0739462,
2008-04-21, 03:44:00,VALID,913.939,VALID,0.4,VALID,100,VALID,-0.0169808,VALID,19.2908,VALID,33,VALID,0.329723,
2008-04-21, 03:45:00,VALID,913.918,VALID,0.4,VALID,100,VALID,-0.0509425,VALID,19.3137,VALID,23,VALID,1.07324,
2008-04-21, 03:46:00,VALID,913.898,VALID,0.2,VALID,100,VALID,0,VALID,19.2975,VALID,30,VALID,1.54421,
2008-04-21, 03:47:00,VALID,913.844,VALID,0.2,VALID,100,VALID,0,VALID,19.2873,VALID,23,VALID,1.64531,
2008-04-21, 03:48:00,VALID,913.843,VALID,0.2,VALID,100,VALID,-0.0169808,VALID,19.2808,VALID,28,VALID,2.10582,